Regional Weather Roundup
Issued by NWS

Home | Current Version | Previous Version | Graphics & Text | Print | Product List | Glossary On
Versions: 1 2 3 4 5 6 7 8 9 10 11 12 13 14 15 16 17 18 19 20 21 22 23 24 25 26 27 28 29 30 31 32 33 34 35 36 37 38 39 40 41 42 43 44 45 46 47 48 49 50
000
ASUS45 KBOU 041407
RWRCO

WEATHER ROUNDUP FOR COLORADO
NATIONAL WEATHER SERVICE DENVER/BOULDER CO
700 AM MST SUN DEC 04 2016

NOTE: "FAIR" INDICATES FEW OR NO CLOUDS BELOW 12000 FEET WITH NO
SIGNIFICANT WEATHER AND/OR OBSTRUCTIONS TO VISIBILITY.

COZ001>005-013-030-031-041500-
...NORTHWEST COLORADO...

CITY           SKY/WX    TMP DP  RH WIND       PRES   REMARKS
CRAIG          FAIR       4   0  83 SW3       30.19R
HAYDEN         FAIR      12   5  73 E9        30.16R WCI   0
MEEKER         FAIR       4  -1  80 E3        30.19R
MOUNT WERNER   NOT AVBL
STEAMBOAT SPGS   N/A      7   4  87 SE3       30.16S
WALDEN           N/A     14   7  73 SE12G17   30.06F WCI   0
$$

COZ006>008-011-041500-
...WEST CENTRAL VALLEYS...

CITY           SKY/WX    TMP DP  RH WIND       PRES   REMARKS
GRAND JUNCTION FAIR      20  15  81 E7        30.22R WCI  11
MONTROSE       FAIR      15   8  73 SE10      30.25F WCI   2
EAGLE          CLEAR      3   0  85 NW3       30.25R
RIFLE          FAIR      12   7  80 S3        30.25R
DELTA          NOT AVBL
NUCLA          FAIR      16   9  73 E10       30.24S WCI   3
$$

COZ017>023-064>068-041500-
...SOUTHWEST COLORADO...

CITY           SKY/WX    TMP DP  RH WIND       PRES   REMARKS
DURANGO        CLOUDY    18  14  84 N5        30.17R WCI  11
CORTEZ         FAIR      13   9  84 E5        30.19R WCI   5
PAGOSA SPRINGS FAIR       9   7  92 CALM      30.15S
TELLURIDE      FAIR      17   7  63 SE7       30.18R WCI   8
WOLF CREEK PAS FAIR      19   0  42 W10       30.17R WCI   8
$$

COZ009-010-012-014-032>034-037-058>063-041500-
...CENTRAL COLORADO...

CITY           SKY/WX    TMP DP  RH WIND       PRES   REMARKS
ASPEN          FAIR       3  -2  79 S8        30.16R WCI -10
BUENA VISTA    FAIR       4  -1  79 CALM      30.09R
COPPER MTN     FAIR      12  -8  40 MISG      30.05S
BERTHOUD PASS  FAIR       3  -9  55 MISG      29.94R
COTTONWOOD PAS FAIR      27  -9  20 N3        30.05R
GUNNISON       FAIR      -1  -6  79 E3        30.25R
KREMMLING      FAIR       5   1  85 SE3       30.17R
LEADVILLE      FAIR       6  -9  50 N6        30.08R WCI  -4
MONARCH PASS     N/A      5   1  85 W44G51    30.13R WCI -23
SALIDA         FAIR      20   3  47 NW8       30.15R WCI  10
SUNLIGHT       FAIR       9   5  85 SW14      30.13S WCI  -8
WILKERSON PASS FAIR      14 -11  31 N5        30.03R WCI   6
$$

COZ069>075-041500-
...SAN LUIS VALLEY/SANGRE DE CRISTO MOUNTAINS...

CITY           SKY/WX    TMP DP  RH WIND       PRES   REMARKS
ALAMOSA        FAIR      -4  -8  83 CALM      30.15R
LA VETA PASS   FAIR       9   3  78 NE32      30.03S WCI -15
SAGUACHE       NOT AVBL
$$

COZ035-036-038>040-041500-
...NORTHERN COLORADO FRONT RANGE...

CITY           SKY/WX    TMP DP  RH WIND       PRES   REMARKS
DENVER INTL AP FAIR      17   6  62 S10       30.00R WCI   5
DMNS CITY PARK   N/A     23   4  44 SE8       30.00S WCI  14
AURORA         PTCLDY    21   4  49 S10       30.00R WCI   9
FRONT RANGE AP PTCLDY    19   9  63 S9        30.00  WCI   9
ERIE MUNI ARPT FAIR      21   8  55 SE3       29.99S
BOULDER MUN AP FAIR      25   9  50 S3        29.98F
CENTENNIAL     FAIR      16   5  62 SE10      30.00R WCI   4
BROOMFIELD     PTCLDY    25   5  42 VRB6      29.99S WCI  18
FORT COLLINS   FAIR      14  10  85 N7        30.00S WCI   4
LONGMONT       FAIR      16  10  75 CALM      30.01S
$$

COZ041-046-047-076>085-087-088-041500-
...PIKES PEAK/PALMER DIVIDE AND SOUTHERN FOOTHILLS...

CITY           SKY/WX    TMP DP  RH WIND       PRES   REMARKS
COLO. SPRINGS  FAIR      13   5  70 NE10      30.04R WCI   0
A. F. ACADEMY  FAIR      10   3  72 N8        30.02R WCI  -2
SCHRIEVER AFB  NOT AVBL
ELLICOTT       FAIR     N/A N/A N/A NE6         N/A
FALCON         FAIR      13   7  76 W3        30.02S
FORT CARSON    FAIR      18   7  61 NW7       30.03R WCI   9
LIMON          FAIR       4   0  83 N7        30.05R WCI  -8
MONUMENT HILL  FAIR      18   9  68 S13       30.01S WCI   4
TRINIDAD       FAIR      20  10  65 SW14      30.06R WCI   7
$$

COZ042>045-048>051-090-091-041500-
...NORTHEAST COLORADO...

CITY           SKY/WX    TMP DP  RH WIND       PRES   REMARKS
GREELEY ARPT   FAIR       7   3  84 CALM      30.03S
AKRON          FAIR      19   9  65 W12       30.02R WCI   7
BURLINGTON     FAIR      17   8  67 W9        30.05R WCI   6
WRAY           FAIR      16  12  86 W6        30.04R WCI   7
STERLING       FAIR      14  10  85 S10       30.01R WCI   1
HOLYOKE        FAIR      19  12  73 W9        30.02S WCI   9
FORT MORGAN    FAIR      15   9  75 W7        30.03S WCI   5
$$

COZ086-089-092>099-041500-
...SOUTHEAST COLORADO...

CITY           SKY/WX    TMP DP  RH WIND       PRES   REMARKS
PUEBLO         FAIR      12   7  80 CALM      30.08R
LA JUNTA       FAIR      16  11  80 W7        30.08S WCI   6
LAMAR          NOT AVBL
SPRINGFIELD      N/A     14  11  87 W6        30.09R WCI   5
$$



USA.gov is the U.S. government's official web portal to all federal, state and local government web resources and services.